Cloud_Cover
94 24 97 14 22 88 100 19 26 5 5 11 21 4 5 5 5 5 0 0 0 12 22 22 94 79 100 93 100 100 100 100 100 100 100 100 100 100 100 100 100 100 100 100
91 100 100 5 4 100 100 89 5 5 18 30 5 12 5 5 5 5 3 0 0 0 47 55 100 61 85 78 100 100 100 100 100 100 100 100 100 100 100 100 100 100 100 100
100 100 100 78 5 100 100 100 8 5 79 45 12 7 5 18 5 20 1 0 0 0 14 99 84 87 32 74 99 100 100 100 100 100 100 100 100 100 100 100 100 100 100 100
100 100 100 98 5 91 100 97 5 52 5 49 33 83 5 5 5 4 5 0 0 0 0 8 77 72 57 15 76 100 100 100 100 100 100 100 100 100 100 100 100 100 100 100
100 100 100 96 90 14 100 6 20 59 5 15 13 100 100 5 5 2 1 0 5 5 0 0 0 0 18 53 44 92 100 100 100 100 100 100 100 100 100 100 100 100 100 100
100 100 100 100 84 37 100 71 6 5 5 100 16 96 100 80 0 21 1 0 0 2 0 0 0 0 1 54 100 96 96 100 100 100 100 100 100 100 100 100 100 100 100 100
100 100 100 100 100 100 100 100 100 12 5 100 71 84 100 100 34 4 5 5 4 5 5 0 0 11 15 98 100 100 98 43 67 91 100 100 100 100 100 100 100 100 100 100
100 100 100 100 100 100 100 99 56 39 5 90 74 98 100 100 100 8 5 5 1 5 5 3 0 0 6 74 100 100 98 60 26 30 26 97 100 100 100 100 100 100 100 100
100 100 100 100 100 100 94 47 99 36 5 52 100 100 100 100 100 100 11 4 5 0 16 5 0 0 0 1 5 31 18 20 36 20 4 8 59 100 100 100 100 100 100 100
100 100 100 100 100 64 100 100 79 6 5 28 90 100 100 100 100 100 98 5 4 0 4 5 2 0 3 2 3 3 0 0 0 1 0 0 16 73 54 95 100 100 100 99
100 100 100 100 100 100 100 100 20 5 5 73 76 100 100 100 100 78 86 5 43 6 3 4 4 4 5 5 5 5 0 0 0 0 0 0 0 2 51 100 83 100 98 99
100 100 100 100 100 99 9 29 10 5 4 8 100 100 100 100 100 100 23 35 50 100 5 4 5 33 5 5 5 5 5 0 2 2 0 1 2 4 67 83 23 46 98 92
100 100 100 100 100 100 80 88 94 45 23 73 100 100 100 100 100 93 80 100 100 100 93 56 70 82 100 7 5 5 5 5 3 1 3 1 2 81 100 100 98 96 37 8
100 100 100 100 100 100 100 100 100 100 100 100 100 100 100 100 100 100 16 5 31 21 100 100 100 100 100 84 55 5 5 5 5 4 0 0 0 1 49 96 100 91 95 100
100 100 100 100 100 100 100 100 30 32 61 72 41 8 40 100 100 100 100 96 87 97 91 100 100 100 100 99 92 33 5 5 5 5 5 5 0 0 0 2 74 98 91 100
93 100 100 100 100 100 100 100 100 66 46 74 65 91 72 97 100 100 100 100 26 91 100 100 100 100 100 100 100 100 53 6 5 5 5 5 5 5 0 0 0 0 0 6
96 98 99 100 100 100 100 100 100 100 100 85 8 100 100 100 100 100 100 100 99 77 100 100 100 100 100 100 100 100 88 100 58 33 98 26 5 11 6 31 5 5 3 29
100 100 100 100 100 95 100 100 100 100 100 100 100 100 100 36 53 100 100 100 100 95 76 100 95 100 100 100 100 100 100 47 98 39 99 100 97 67 27 48 46 72 98 100
100 100 100 100 100 77 100 100 100 100 100 100 99 28 32 21 5 21 81 99 100 99 77 54 100 100 100 100 100 100 100 100 100 100 63 84 65 100 100 100 100 100 100 100
30 41 40 98 99 100 100 100 100 100 100 100 100 100 100 69 20 95 100 100 100 100 100 100 100 100 100 100 79 100 100 100 100 100 100 99 52 100 100 100 100 100 100 100
100 100 100 100 94 93 55 72 68 68 60 11 5 5 5 5 5 66 50 100 100 100 100 100 100 100 100 100 100 100 100 100 100 100 100 100 100 100 100 100 100 100 100 100
48 74 69 100 91 99 99 10 4 5 5 5 0 0 0 0 3 93 80 31 100 100 100 100 100 87 100 100 100 100 100 100 100 100 100 100 100 100 100 100 100 100 100 100
51 5 4 2 2 0 0 0 0 0 0 0 0 0 0 0 0 5 100 6 89 100 100 100 100 100 98 100 100 100 100 100 100 100 100 100 100 100 100 100 100 100 100 100
2 5 2 0 0 0 0 0 0 0 0 0 0 0 0 0 1 5 100 98 85 90 99 96 99 100 100 100 100 100 100 100 100 100 100 100 100 100 100 100 100 100 100 100
0 1 0 0 0 0 0 4 20 0 2 2 2 5 12 54 98 90 100 100 100 100 99 99 100 100 100 100 100 100 100 100 100 100 100 100 100 100 100 100 100 100 100 100
0 0 0 5 53 98 70 6 91 92 5 2 5 59 14 88 100 100 100 100 100 100 100 100 100 100 100 100 100 100 100 100 100 100 100 100 100 100 100 100 100 100 100 100